Time,TemperatureF,DewpointF,PressureIn,WindDirection,WindDirectionDegrees,WindSpeedMPH,WindSpeedGustMPH,Humidity,HourlyPrecipIn,Conditions,Clouds,dailyrainin,SoftwareType,DateUTC
2013-02-09 00:03:00,30.1,25.0,30.22,NE,52,13.0,-999.0,80,-99.99,,,0.00,weatherlink.com 1.10,2013-02-09 05:03:00,
2013-02-09 00:18:00,29.8,25.0,30.22,NNE,30,9.0,-999.0,81,-99.99,,,0.00,weatherlink.com 1.10,2013-02-09 05:18:00,
2013-02-09 00:33:00,29.7,25.0,30.23,NE,47,6.0,-999.0,81,-99.99,,,0.00,weatherlink.com 1.10,2013-02-09 05:33:00,
2013-02-09 01:03:00,29.6,24.0,30.25,NNE,30,11.0,-999.0,81,-99.99,,,0.00,weatherlink.com 1.10,2013-02-09 06:03:00,
2013-02-09 01:18:00,29.8,24.0,30.24,NE,53,13.0,-999.0,80,-99.99,,,0.00,weatherlink.com 1.10,2013-02-09 06:18:00,
2013-02-09 01:33:00,30.2,24.0,30.24,NE,36,10.0,-999.0,77,-99.99,,,0.00,weatherlink.com 1.10,2013-02-09 06:33:00,
2013-02-09 01:48:00,30.5,23.0,30.26,NNE,23,6.0,-999.0,75,-99.99,,,0.00,weatherlink.com 1.10,2013-02-09 06:48:00,
2013-02-09 02:03:00,30.7,23.0,30.26,ENE,59,8.0,-999.0,72,-99.99,,,0.00,weatherlink.com 1.10,2013-02-09 07:03:00,
2013-02-09 02:18:00,31.1,22.0,30.27,ENE,59,6.0,-999.0,69,-99.99,,,0.00,weatherlink.com 1.10,2013-02-09 07:18:00,
2013-02-09 02:33:00,31.9,21.0,30.27,NE,47,3.0,-999.0,65,-99.99,,,0.00,weatherlink.com 1.10,2013-02-09 07:33:00,
2013-02-09 02:49:00,32.1,20.0,30.28,NE,53,6.0,-999.0,62,-99.99,,,0.00,weatherlink.com 1.10,2013-02-09 07:49:00,
2013-02-09 03:03:00,32.3,19.0,30.27,NE,44,7.0,-999.0,59,-99.99,,,0.00,weatherlink.com 1.10,2013-02-09 08:03:00,
2013-02-09 03:18:00,33.0,17.0,30.26,NE,53,11.0,-999.0,53,-99.99,,,0.00,weatherlink.com 1.10,2013-02-09 08:18:00,
2013-02-09 03:33:00,33.4,16.0,30.27,NE,40,6.0,-999.0,50,-99.99,,,0.00,weatherlink.com 1.10,2013-02-09 08:33:00,
2013-02-09 03:48:00,33.4,16.0,30.28,NE,42,8.0,-999.0,49,-99.99,,,0.00,weatherlink.com 1.10,2013-02-09 08:48:00,
2013-02-09 04:03:00,33.2,15.0,30.29,ENE,66,8.0,-999.0,48,-99.99,,,0.00,weatherlink.com 1.10,2013-02-09 09:03:00,
2013-02-09 04:18:00,33.5,14.0,30.29,ENE,59,6.0,-999.0,45,-99.99,,,0.00,weatherlink.com 1.10,2013-02-09 09:18:00,
2013-02-09 04:33:00,33.3,14.0,30.30,NE,45,10.0,-999.0,45,-99.99,,,0.00,weatherlink.com 1.10,2013-02-09 09:33:00,
2013-02-09 04:48:00,33.3,13.0,30.30,NNE,29,7.0,-999.0,44,-99.99,,,0.00,weatherlink.com 1.10,2013-02-09 09:48:00,
2013-02-09 05:03:00,33.3,13.0,30.31,NNE,32,5.0,-999.0,44,-99.99,,,0.00,weatherlink.com 1.10,2013-02-09 10:03:00,
2013-02-09 05:18:00,33.2,14.0,30.31,NE,44,11.0,-999.0,45,-99.99,,,0.00,weatherlink.com 1.10,2013-02-09 10:18:00,
2013-02-09 05:33:00,33.6,13.0,30.32,NE,46,10.0,-999.0,42,-99.99,,,0.00,weatherlink.com 1.10,2013-02-09 10:33:00,
2013-02-09 05:48:00,34.1,11.0,30.33,NE,40,8.0,-999.0,39,-99.99,,,0.00,weatherlink.com 1.10,2013-02-09 10:48:00,
2013-02-09 06:03:00,34.2,11.0,30.34,East,98,8.0,-999.0,38,-99.99,,,0.00,weatherlink.com 1.10,2013-02-09 11:03:00,
2013-02-09 06:18:00,34.3,11.0,30.34,ENE,71,4.0,-999.0,38,-99.99,,,0.00,weatherlink.com 1.10,2013-02-09 11:18:00,
2013-02-09 06:33:00,34.0,11.0,30.35,NE,53,7.0,-999.0,38,-99.99,,,0.00,weatherlink.com 1.10,2013-02-09 11:33:00,
2013-02-09 06:48:00,34.4,10.0,30.35,NE,48,6.0,-999.0,36,-99.99,,,0.00,weatherlink.com 1.10,2013-02-09 11:48:00,
2013-02-09 07:03:00,34.2,10.0,30.35,NE,43,6.0,-999.0,36,-99.99,,,0.00,weatherlink.com 1.10,2013-02-09 12:03:00,
2013-02-09 07:18:00,34.4,9.0,30.36,NE,37,5.0,-999.0,34,-99.99,,,0.00,weatherlink.com 1.10,2013-02-09 12:18:00,
2013-02-09 07:33:00,34.4,9.0,30.37,NNE,25,4.0,-999.0,34,-99.99,,,0.00,weatherlink.com 1.10,2013-02-09 12:33:00,
2013-02-09 07:48:00,34.3,8.0,30.38,NE,51,2.0,-999.0,34,-99.99,,,0.00,weatherlink.com 1.10,2013-02-09 12:48:00,
2013-02-09 08:03:00,34.3,8.0,30.38,ENE,57,6.0,-999.0,33,-99.99,,,0.00,weatherlink.com 1.10,2013-02-09 13:03:00,
2013-02-09 08:18:00,35.0,7.0,30.39,NE,49,6.0,-999.0,31,-99.99,,,0.00,weatherlink.com 1.10,2013-02-09 13:18:00,
2013-02-09 08:33:00,35.2,7.0,30.40,ENE,67,5.0,-999.0,30,-99.99,,,0.00,weatherlink.com 1.10,2013-02-09 13:33:00,
2013-02-09 08:48:00,35.3,7.0,30.41,ENE,61,6.0,-999.0,30,-99.99,,,0.00,weatherlink.com 1.10,2013-02-09 13:48:00,
2013-02-09 09:03:00,35.6,7.0,30.42,ENE,61,4.0,-999.0,30,-99.99,,,0.00,weatherlink.com 1.10,2013-02-09 14:03:00,
2013-02-09 09:18:00,36.1,7.0,30.42,ENE,65,3.0,-999.0,30,-99.99,,,0.00,weatherlink.com 1.10,2013-02-09 14:18:00,
2013-02-09 09:33:00,36.5,8.0,30.43,ENE,65,1.0,-999.0,30,-99.99,,,0.00,weatherlink.com 1.10,2013-02-09 14:33:00,
2013-02-09 09:48:00,37.3,9.0,30.43,ENE,65,0.0,-999.0,31,-99.99,,,0.00,weatherlink.com 1.10,2013-02-09 14:48:00,
2013-02-09 10:03:00,38.0,10.0,30.44,ENE,65,0.0,-999.0,31,-99.99,,,0.00,weatherlink.com 1.10,2013-02-09 15:03:00,
2013-02-09 10:18:00,38.8,10.0,30.44,ENE,65,0.0,-999.0,31,-99.99,,,0.00,weatherlink.com 1.10,2013-02-09 15:18:00,
2013-02-09 10:33:00,39.3,13.0,30.44,SE,136,0.0,-999.0,34,-99.99,,,0.00,weatherlink.com 1.10,2013-02-09 15:33:00,
2013-02-09 10:48:00,39.6,15.0,30.45,SE,143,1.0,-999.0,36,-99.99,,,0.00,weatherlink.com 1.10,2013-02-09 15:48:00,
2013-02-09 11:03:00,40.1,14.0,30.46,SSE,161,0.0,-999.0,35,-99.99,,,0.00,weatherlink.com 1.10,2013-02-09 16:03:00,
2013-02-09 11:18:00,40.8,14.0,30.46,SSE,161,2.0,-999.0,34,-99.99,,,0.00,weatherlink.com 1.10,2013-02-09 16:18:00,
2013-02-09 11:33:00,42.5,16.0,30.46,South,177,0.0,-999.0,34,-99.99,,,0.00,weatherlink.com 1.10,2013-02-09 16:33:00,
2013-02-09 11:48:00,43.5,17.0,30.46,South,178,0.0,-999.0,35,-99.99,,,0.00,weatherlink.com 1.10,2013-02-09 16:48:00,
2013-02-09 12:03:00,45.0,18.0,30.46,SW,216,0.0,-999.0,34,-99.99,,,0.00,weatherlink.com 1.10,2013-02-09 17:03:00,
2013-02-09 12:18:00,45.5,18.0,30.46,SW,214,0.0,-999.0,34,-99.99,,,0.00,weatherlink.com 1.10,2013-02-09 17:18:00,
2013-02-09 12:33:00,45.1,17.0,30.45,WSW,253,3.0,-999.0,32,-99.99,,,0.00,weatherlink.com 1.10,2013-02-09 17:33:00,
2013-02-09 12:48:00,46.1,18.0,30.45,West,274,4.0,-999.0,33,-99.99,,,0.00,weatherlink.com 1.10,2013-02-09 17:48:00,
2013-02-09 13:03:00,46.8,17.0,30.45,West,261,1.0,-999.0,30,-99.99,,,0.00,weatherlink.com 1.10,2013-02-09 18:03:00,
2013-02-09 13:18:00,47.9,18.0,30.45,West,262,4.0,-999.0,31,-99.99,,,0.00,weatherlink.com 1.10,2013-02-09 18:18:00,
2013-02-09 13:33:00,49.0,18.0,30.44,WSW,258,2.0,-999.0,29,-99.99,,,0.00,weatherlink.com 1.10,2013-02-09 18:33:00,
2013-02-09 13:48:00,50.1,20.0,30.43,WSW,238,0.0,-999.0,31,-99.99,,,0.00,weatherlink.com 1.10,2013-02-09 18:48:00,
2013-02-09 14:03:00,51.9,21.0,30.43,SSW,211,0.0,-999.0,30,-99.99,,,0.00,weatherlink.com 1.10,2013-02-09 19:03:00,
2013-02-09 14:18:00,52.7,21.0,30.42,SW,222,2.0,-999.0,29,-99.99,,,0.00,weatherlink.com 1.10,2013-02-09 19:18:00,
2013-02-09 14:33:00,52.4,19.0,30.42,SSW,206,2.0,-999.0,27,-99.99,,,0.00,weatherlink.com 1.10,2013-02-09 19:33:00,
2013-02-09 14:48:00,52.9,19.0,30.41,SSW,213,0.0,-999.0,26,-99.99,,,0.00,weatherlink.com 1.10,2013-02-09 19:48:00,
2013-02-09 15:03:00,52.8,19.0,30.41,SSW,203,0.0,-999.0,26,-99.99,,,0.00,weatherlink.com 1.10,2013-02-09 20:03:00,
2013-02-09 15:19:00,52.6,18.0,30.41,SSW,213,1.0,-999.0,25,-99.99,,,0.00,weatherlink.com 1.10,2013-02-09 20:19:00,
2013-02-09 15:33:00,52.4,20.0,30.41,WSW,255,0.0,-999.0,28,-99.99,,,0.00,weatherlink.com 1.10,2013-02-09 20:33:00,
2013-02-09 15:48:00,52.9,21.0,30.41,SSW,210,0.0,-999.0,29,-99.99,,,0.00,weatherlink.com 1.10,2013-02-09 20:48:00,
2013-02-09 16:03:00,52.9,22.0,30.41,SSW,203,0.0,-999.0,30,-99.99,,,0.00,weatherlink.com 1.10,2013-02-09 21:03:00,
2013-02-09 16:18:00,52.4,22.0,30.41,SSW,192,0.0,-999.0,31,-99.99,,,0.00,weatherlink.com 1.10,2013-02-09 21:18:00,
2013-02-09 16:33:00,51.5,22.0,30.41,East,80,0.0,-999.0,32,-99.99,,,0.00,weatherlink.com 1.10,2013-02-09 21:33:00,
2013-02-09 16:48:00,51.7,24.0,30.41,SSW,198,0.0,-999.0,34,-99.99,,,0.00,weatherlink.com 1.10,2013-02-09 21:48:00,
2013-02-09 17:03:00,51.4,24.0,30.41,SSW,196,3.0,-999.0,34,-99.99,,,0.00,weatherlink.com 1.10,2013-02-09 22:03:00,
2013-02-09 17:18:00,50.2,23.0,30.41,SSW,196,0.0,-999.0,35,-99.99,,,0.00,weatherlink.com 1.10,2013-02-09 22:18:00,
2013-02-09 17:33:00,49.5,23.0,30.41,SSW,210,0.0,-999.0,36,-99.99,,,0.00,weatherlink.com 1.10,2013-02-09 22:33:00,
2013-02-09 17:48:00,48.4,23.0,30.41,SSW,210,0.0,-999.0,37,-99.99,,,0.00,weatherlink.com 1.10,2013-02-09 22:48:00,
2013-02-09 18:03:00,47.0,22.0,30.41,SE,133,0.0,-999.0,37,-99.99,,,0.00,weatherlink.com 1.10,2013-02-09 23:03:00,
2013-02-09 18:19:00,45.4,20.0,30.41,SW,219,1.0,-999.0,37,-99.99,,,0.00,weatherlink.com 1.10,2013-02-09 23:19:00,
2013-02-09 18:33:00,44.5,19.0,30.41,SSE,167,0.0,-999.0,36,-99.99,,,0.00,weatherlink.com 1.10,2013-02-09 23:33:00,
2013-02-09 18:48:00,44.1,19.0,30.42,SE,134,0.0,-999.0,36,-99.99,,,0.00,weatherlink.com 1.10,2013-02-09 23:48:00,
2013-02-09 19:04:00,43.6,20.0,30.42,SE,141,0.0,-999.0,39,-99.99,,,0.00,weatherlink.com 1.10,2013-02-10 00:04:00,
2013-02-09 19:19:00,43.3,21.0,30.43,South,186,0.0,-999.0,41,-99.99,,,0.00,weatherlink.com 1.10,2013-02-10 00:19:00,
2013-02-09 19:33:00,43.0,20.0,30.43,East,95,0.0,-999.0,40,-99.99,,,0.00,weatherlink.com 1.10,2013-02-10 00:33:00,
2013-02-09 19:48:00,42.8,19.0,30.43,ESE,103,2.0,-999.0,39,-99.99,,,0.00,weatherlink.com 1.10,2013-02-10 00:48:00,
2013-02-09 20:03:00,42.7,20.0,30.44,SE,124,0.0,-999.0,41,-99.99,,,0.00,weatherlink.com 1.10,2013-02-10 01:03:00,
2013-02-09 20:19:00,42.4,21.0,30.44,SW,218,0.0,-999.0,43,-99.99,,,0.00,weatherlink.com 1.10,2013-02-10 01:19:00,
2013-02-09 20:33:00,42.2,22.0,30.45,SSW,208,1.0,-999.0,45,-99.99,,,0.00,weatherlink.com 1.10,2013-02-10 01:33:00,
2013-02-09 20:48:00,42.0,23.0,30.45,SW,229,1.0,-999.0,47,-99.99,,,0.00,weatherlink.com 1.10,2013-02-10 01:48:00,
2013-02-09 21:04:00,41.4,25.0,30.44,ESE,121,1.0,-999.0,52,-99.99,,,0.00,weatherlink.com 1.10,2013-02-10 02:04:00,
2013-02-09 21:19:00,41.2,25.0,30.45,SSE,154,1.0,-999.0,52,-99.99,,,0.00,weatherlink.com 1.10,2013-02-10 02:19:00,
2013-02-09 21:33:00,41.2,24.0,30.45,SSW,211,0.0,-999.0,51,-99.99,,,0.00,weatherlink.com 1.10,2013-02-10 02:33:00,
2013-02-09 21:48:00,41.3,23.0,30.45,SSW,211,1.0,-999.0,49,-99.99,,,0.00,weatherlink.com 1.10,2013-02-10 02:48:00,
2013-02-09 22:03:00,41.2,23.0,30.45,SE,146,0.0,-999.0,49,-99.99,,,0.00,weatherlink.com 1.10,2013-02-10 03:03:00,
2013-02-09 22:18:00,41.1,23.0,30.44,ESE,113,1.0,-999.0,48,-99.99,,,0.00,weatherlink.com 1.10,2013-02-10 03:18:00,
2013-02-09 22:33:00,41.0,22.0,30.44,SSE,150,0.0,-999.0,47,-99.99,,,0.00,weatherlink.com 1.10,2013-02-10 03:33:00,
2013-02-09 22:48:00,41.0,20.0,30.44,SSW,202,0.0,-999.0,44,-99.99,,,0.00,weatherlink.com 1.10,2013-02-10 03:48:00,
2013-02-09 23:03:00,40.9,20.0,30.44,East,80,0.0,-999.0,43,-99.99,,,0.00,weatherlink.com 1.10,2013-02-10 04:03:00,
2013-02-09 23:19:00,41.1,19.0,30.45,SSE,165,0.0,-999.0,41,-99.99,,,0.00,weatherlink.com 1.10,2013-02-10 04:19:00,
2013-02-09 23:33:00,41.2,18.0,30.45,WSW,238,0.0,-999.0,39,-99.99,,,0.00,weatherlink.com 1.10,2013-02-10 04:33:00,
2013-02-09 23:48:00,41.2,18.0,30.45,SSW,198,1.0,-999.0,39,-99.99,,,0.00,weatherlink.com 1.10,2013-02-10 04:48:00,